Regional Weather Roundup
Issued by NWS Albany, NY

Home | Current Version | Previous Version | Text Only | Print | Product List | Glossary On
Versions: 1 2 3 4 5 6 7 8 9 10 11 12 13 14 15 16 17 18 19 20 21 22 23 24 25 26 27 28 29 30 31 32 33 34 35 36 37 38 39 40 41 42 43 44 45 46 47 48 49 50
000
ASUS41 KALY 051010
RWRALY

NEW YORK STATE HOURLY WEATHER ROUNDUP
NATIONAL WEATHER SERVICE ALBANY NY
500 AM EST THU MAR 05 2015

NOTE: "FAIR" INDICATES FEW OR NO CLOUDS BELOW 12,000 FEET WITH NO
SIGNIFICANT WEATHER AND/OR NO OBSTRUCTIONS TO VISIBILITY.

NYZ032-033-038>043-046>054-057>066-NYZ062>081-051100-
EAST


CITY           SKY/WX    TMP DP  RH WIND       PRES   REMARKS
ALBANY         CLOUDY    27  10  49 NW18      30.05R WCI  14
GLENS FALLS    CLOUDY    26   7  44 N7        30.02R WCI  18
POUGHKEEPSIE   CLOUDY    33  31  92 CALM      29.98R FOG
NEWBURGH       CLOUDY    34  25  69 N13G18    29.98R WCI  25
MONTGOMERY     CLOUDY    35  21  56 N6        29.96R WCI  30
WHITE PLAINS   LGT SNOW  33  29  85 NW12G22   29.95R VSB 1   WCI  24
ISLIP          LGT SNOW  34  31  88 NW18G28   29.96R FOG     WCI  23
NEW YORK CITY  LGT SNOW  34  30  85 NW12      29.98R FOG     WCI  25
CENTRAL PARK   LGT SNOW  32  29  88 VRB6      30.00R FOG     WCI  26
$$

NYZ005>009-017-018-044>046-055-056-051100-
CENTRAL


CITY           SKY/WX    TMP DP  RH WIND       PRES   REMARKS
FULTON         CLOUDY    17   4  56 W16       30.16R WCI   2
SYRACUSE       CLOUDY    14   5  67 W12       30.15R WCI   0
ROME           CLOUDY    18   6  59 W15       30.13R WCI   4
ELMIRA         LGT SNOW  17   9  70 NE15G23   30.13R WCI   2
BINGHAMTON     LGT SNOW  16  11  80 NW17G26   30.03R WCI   0
MONTICELLO     CLOUDY    27  18  69 NW17G23   29.95R WCI  14
$$

NYZ026>034-041>043-051100-
NORTH


CITY           SKY/WX    TMP DP  RH WIND       PRES   REMARKS
WATERTOWN      CLOUDY    16   3  56 W8        30.14R WCI   5
FORT DRUM      NOT AVBL
MASSENA        CLOUDY    14   1  56 NW13      30.12R WCI   0
SARANAC LAKE   CLOUDY    12   0  58 VRB6      29.92R WCI   3
PLATTSBURGH    CLOUDY    19   3  49 NW10G17   30.04R WCI   7
$$

NYZ001>004-010>016-019>021-051100-
WEST


CITY           SKY/WX    TMP DP  RH WIND       PRES   REMARKS
NIAGARA FALLS  MOCLDY    11  -2  56 NW14      30.24R WCI  -5
BUFFALO        CLOUDY    12  -1  56 NW16      30.22R WCI  -5
DUNKIRK        CLOUDY    12  -1  56 NW8       30.27R WCI   0
JAMESTOWN      CLOUDY    10   1  67 N15       30.13R WCI  -6
WELLSVILLE     MIX PCPN  13   5  70 N12G22    30.04R WCI  -1
ROCHESTER      CLOUDY    14   2  58 W15G22    30.22R WCI  -1
PENN YAN       CLOUDY    14   3  61 NW16      30.16R WCI  -2
$$

             KEY
       WCI = WIND CHILL INDEX
       VSB = VISIBILITY
       HX  = HEAT INDEX
$$



USA.gov is the U.S. government's official web portal to all federal, state and local government web resources and services.